Starlink 33782

operational
NORAD ID: 64332 Int'l Des: 2025-124 Owner: SPXS Country: US Constellation: starlink
LEOCIRCULAR

Starlink 33782について

説明を読み込み中...

リアルタイム位置

3D地球を読み込み中...

次回通過

高度履歴

Altitude vs Time

uPlot chart will show altitude changes over time

軌道要素

1 64332U 25124R 25352.68831448 .00027478 00000-0 10033-2 0 9998
2 64332 43.0008 219.0465 0001481 274.8921 85.1762 15.27612381 29397
Epoch: Dec 18, 2025 • Age: 26 hours

現在のステータス

高度 491.4 km
速度 7.62 km/s
衛星直下点 -33.94°S, 153.96°E
打ち上げ日 Jun 10, 2025
運用期間 0.5 years
タイプ internet

技術仕様

分類 Payload
質量 575.00 kg
乾燥質量 530.00 kg
総質量 575.00 kg
長さ 0.30 m
直径 4.10 m
スパン 29.00 m
形状 Box + pan
製造者 SPXS
バスタイプ Starlink V2MO
フェーズステータス In Orbit
所有者/国 SPXS/US

大規模コンステレーション

Loading constellations...